Location: Dead Woman Crossing
(43.5369°N, 106.3228°W)
Time: 01:03:35
(UTC+00:00)

COSMOS 2251 DEB - Pass Details

Date: 01 December 2022
Orbit: 765 x 800 km, 74.0° (Epoch: 25 January)

Event Time Altitude Azimuth Distance (km) Brightness Sun altitude
Rises 01:20:13 0° 343° (NNW) 3,262 ? -19.4°
Reaches altitude 10° 01:22:42 10° 349° (N) 2,325 ? -19.8°
Maximum altitude 01:27:49 49° 65° (ENE) 982 ? -20.7°
Enters shadow 01:28:52 43° 101° (E) 1,072 ? -20.9°
